星链-5195 (STARLINK-5195 )

导读

STARLINK-5195是美国太空探索技术公司SpaceX星链星座中的一颗卫星,于2022年10月20日发射入轨,属于星链网络的组网卫星,主要服务是为全球范围内提供高速互联网接入服务,补充星链低轨星座的通信覆盖能力,支撑星链的民用与相关业务服务。

Basic Information
目录编号:
54051
目录名称:
STARLINK-5195
国际标识:
2022-136A
轨道中心:
EARTH
卫星名称:
星链-5195
卫星全名:
星链-5195 (STARLINK-5195 )
卫星状态:
在轨 (已飞行1415 天)
发射日期:
2022-10-20 UTC
国别 :
美国 (US)
星等 :
--
Orbit Information
数据来源 国际轨道数据
星历时间: 2026-09-05T02:00:01+0800
3小时前
查看轨道信息
半长轴: 6904.423km
偏心率: 0.0002513
轨道倾角: 53.161°
近地点辐角 41.671°
升交点赤经 260.640°
平近点角 56.897°
近地点: 524.55km
远地点: 528.022km
周期: 95.159分钟
每日圈数: 15.132536
Detailed Information
固有亮度:
5
最大亮度:
2.5
卫星平台:
Starlink v1.5
覆盖范围:
全球
运营商:
太空探索技术公司
运营商所在国:
美国
制造商(研发单位):
太空探索技术公司
制造商所在国:
美国
使用方式:
暂无
Satellite Introduction
星链(Starlink)计划是由太空探索技术公司(SpaceX)提出的一个巨型低轨卫星互联网星座项目,计划在2019年至2024年间在太空搭建由约1.2万颗卫星组成的“星链”网络,其中1584颗将部署在地球上空550千米处的近地轨道,并从2020年开始工作。该卫星仍在工作。
2D Orbit Map
3D Orbit Map
Orbit Altitude Analysis Chart
Orbit Inclination Analysis Chart
Orbit Comprehensive Analysis Chart
View Comprehensive Chart
Conjunction Data List
Event ID Objects TCA Miss Dist (km) Collision Risk Probability Collision Risk Index (CRI) Action
CDM_260906-161204-282605-405121
NORSAT 1 (42826)
2026-09-06T
16:12:02+0000
2.895 km
极远距离
1.387823E-6 低风险 0.38
CDM_260901-125105-405106-869721
OBJECT G (68697)
2026-09-01T
12:51:26+0000
2.838 km
极远距离
9.919153E-7 极低风险 0.35